CW1238 Weather Reports


Display with metric or nautical units.
time (UTC)temp
F
wind
direction
speed
MPH
gust
MPH
rain 1hr
in
rain 24hr
in
rain mn
in
humidity
%
barometer
mb
20260903161707 73 189 2.0 4.0 0.00 0.29 0.29 91 1051.3
20260903161202 73 207 4.0 6.0 0.00 0.29 0.29 90 1051.1
20260903160657 73 249 2.0 6.0 0.00 0.29 0.29 90 1051.2
20260903160151 73 205 3.0 6.0 0.00 0.29 0.29 89 1051.2
20260903155650 73 220 5.0 7.0 0.00 0.29 0.29 88 1051.3
20260903155145 73 251 1.0 4.0 0.00 0.29 0.29 89 1051.4
20260903154641 73 211 4.0 8.0 0.00 0.29 0.29 90 1051.3
20260903154137 72 241 1.0 7.0 0.00 0.29 0.29 91 1051.4
20260903153632 72 238 2.0 4.0 0.00 0.29 0.29 90 1051.5
20260903153128 72 217 1.0 7.0 0.00 0.29 0.29 90 1051.2
20260903152624 72 175 2.0 4.0 0.00 0.29 0.29 89 1051.2
20260903152120 72 234 0.0 2.0 0.00 0.29 0.29 90 1051.4
20260903151619 72 225 1.0 1.0 0.00 0.29 0.29 89 1051.6
20260903151114 72 258 0.0 1.0 0.00 0.29 0.29 92 1051.3
20260903150614 72 221 0.0 1.0 0.00 0.29 0.29 92 1051.5
20260903150109 72 231 0.0 0.0 0.00 0.29 0.29 92 1051.6
20260903145609 71 228 0.0 1.0 0.00 0.29 0.29 92 1051.8
20260903145104 71 212 0.0 1.0 0.00 0.29 0.29 92 1051.8
20260903144603 71 71 1.0 2.0 0.00 0.29 0.29 93 1051.8
20260903144059 71 225 0.0 0.0 0.00 0.29 0.29 93 1051.8
20260903143555 71 244 0.0 0.0 0.00 0.29 0.29 90 1051.7
20260903143051 72 20 1.0 2.0 0.00 0.29 0.29 90 1051.8
20260903142546 72 247 1.0 1.0 0.00 0.29 0.29 90 1051.6
20260903142043 72 240 0.0 1.0 0.00 0.29 0.29 89 1051.3
20260903141538 72 229 0.0 2.0 0.00 0.29 0.29 90 1050.8
20260903141033 71 242 3.0 8.0 0.00 0.29 0.29 90 1050.9
20260903140529 71 222 1.0 4.0 0.00 0.29 0.29 91 1050.7
20260903140024 71 224 3.0 3.0 0.00 0.29 0.29 91 1050.4
20260903135520 71 182 1.0 3.0 0.00 0.29 0.29 93 1050.2
20260903135019 71 221 0.0 4.0 0.00 0.29 0.29 92 1050.4
20260903134519 71 244 0.0 3.0 0.00 0.29 0.29 92 1050.3
20260903134015 70 198 1.0 3.0 0.00 0.29 0.29 93 1050.2
20260903133512 70 73 2.0 4.0 0.00 0.29 0.29 94 1050.3
20260903133008 69 210 1.0 3.0 0.00 0.29 0.29 95 1050.7
20260903132503 69 224 0.0 2.0 0.00 0.29 0.29 95 1050.9
20260903132002 69 120 1.0 1.0 0.00 0.29 0.29 95 1051.2
20260903131457 69 217 1.0 3.0 0.00 0.29 0.29 95 1051.5
20260903130956 69 357 1.0 2.0 0.00 0.29 0.29 96 1051.5
20260903130452 69 38 1.0 3.0 0.00 0.29 0.29 97 1051.0
20260903125951 69 195 2.0 2.0 0.00 0.29 0.29 97 1051.3
20260903125451 69 100 1.0 2.0 0.00 0.29 0.29 97 1051.8
20260903124951 69 248 0.0 1.0 0.00 0.29 0.29 97 1051.9
20260903124446 69 213 1.0 3.0 0.00 0.29 0.29 96 1051.8
20260903123945 69 250 1.0 1.0 0.00 0.29 0.29 97 1051.4
20260903123439 69 9 2.0 3.0 0.00 0.29 0.29 97 1051.3
20260903122938 69 186 1.0 2.0 0.00 0.29 0.29 97 1051.0
20260903122433 69 277 2.0 4.0 0.00 0.29 0.29 98 1051.0
20260903121932 69 24 2.0 6.0 0.00 0.29 0.29 98 1050.9
20260903121426 68 80 5.0 6.0 0.00 0.29 0.29 98 1051.1
20260903120923 68 188 2.0 4.0 0.00 0.29 0.29 98 1051.5
20260903120421 68 164 1.0 2.0 0.00 0.29 0.29 99 1052.4
20260903115920 68 286 1.0 2.0 0.00 0.29 0.29 99 1051.9
20260903115414 69 255 0.0 0.0 0.00 0.29 0.29 98 1051.8
20260903114909 69 219 2.0 3.0 0.00 0.29 0.29 98 1051.7
20260903114405 69 215 0.0 0.0 0.07 0.29 0.29 98 1051.7
20260903113901 68 61 3.0 6.0 0.07 0.29 0.29 98 1051.5
20260903113356 69 81 2.0 2.0 0.00 0.28 0.28 98 1051.7
20260903112852 68 216 1.0 2.0 0.35 0.28 0.28 98 1052.3
20260903112347 68 86 3.0 3.0 0.35 0.27 0.27 98 1052.9
20260903111846 69 268 1.0 1.0 0.12 0.22 0.22 98 1053.5
20260903111345 69 261 0.0 1.0 0.00 0.20 0.20 98 1053.3
20260903110842 69 312 2.0 3.0 0.00 0.20 0.20 98 1053.1
20260903110337 69 151 2.0 3.0 0.00 0.20 0.20 98 1052.4
20260903105833 69 220 0.0 1.0 0.00 0.20 0.20 98 1053.3
20260903105332 69 243 0.0 2.0 0.00 0.20 0.20 98 1052.7
20260903104826 69 233 1.0 2.0 0.00 0.20 0.20 98 1052.7
20260903104321 69 231 0.0 1.0 0.00 0.20 0.20 98 1052.3
20260903103818 69 230 0.0 1.0 0.00 0.20 0.20 97 1052.0
20260903103308 69 240 0.0 0.0 0.00 0.20 0.20 97 1051.7
20260903102804 69 28 2.0 3.0 0.07 0.20 0.20 97 1051.7
20260903102258 69 22 2.0 3.0 0.19 0.20 0.20 97 1051.8
20260903101756 69 202 0.0 1.0 0.12 0.19 0.19 96 1052.3
20260903101253 69 98 1.0 2.0 0.05 0.17 0.17 95 1052.8
20260903100748 69 243 0.0 2.0 0.05 0.17 0.17 95 1052.9
20260903100247 70 241 0.0 0.0 0.12 0.16 0.16 95 1052.4
20260903095739 70 271 0.0 3.0 0.50 0.16 0.16 93 1052.3
20260903095234 71 255 2.0 3.0 0.47 0.13 0.13 91 1052.2
20260903094729 73 123 1.0 4.0 0.17 0.08 0.08 85 1052.7
20260903094224 72 296 2.0 14.0 0.00 0.05 0.05 83 1052.9
20260903093720 72 266 2.0 3.0 0.00 0.05 0.05 89 1051.3
20260903093215 70 209 4.0 8.0 0.00 0.05 0.05 91 1051.1
20260903092714 70 240 0.0 0.0 0.00 0.05 0.05 92 1050.2
20260903092209 71 230 0.0 0.0 0.00 0.05 0.05 90 1050.2
20260903091708 71 226 0.0 1.0 0.00 0.05 0.05 90 1050.2
20260903091203 71 208 0.0 1.0 0.00 0.05 0.05 88 1050.3
20260903090658 71 196 0.0 2.0 0.00 0.05 0.05 91 1050.6
20260903090157 71 231 0.0 1.0 0.00 0.05 0.05 86 1050.3
20260903085656 71 315 0.0 0.0 0.07 0.05 0.05 88 1050.7
20260903085151 72 219 2.0 4.0 0.12 0.05 0.05 84 1050.5
20260903084648 72 194 3.0 6.0 0.17 0.04 0.04 85 1050.4
20260903084143 73 210 6.0 14.0 0.19 0.03 0.03 83 1050.4
20260903083639 74 278 6.0 10.0 0.00 0.00 0.00 82 1050.6
20260903083133 74 230 7.0 10.0 0.00 0.00 0.00 92 1050.4
20260903082627 74 229 2.0 3.0 0.00 0.00 0.00 94 1050.7
20260903082123 74 208 1.0 3.0 0.00 0.00 0.00 94 1050.7
20260903081618 74 247 2.0 4.0 0.00 0.00 0.00 93 1050.3
20260903081114 73 272 3.0 3.0 0.00 0.00 0.00 94 1050.3
20260903080610 73 221 1.0 3.0 0.00 0.00 0.00 94 1050.4
20260903080107 73 228 3.0 4.0 0.00 0.00 0.00 94 1050.4
20260903075602 74 225 0.0 2.0 0.00 0.00 0.00 94 1050.5
20260903075056 74 233 1.0 1.0 0.00 0.00 0.00 93 1050.1
20260903074555 74 236 1.0 2.0 0.00 0.00 0.00 93 1050.2
20260903074050 74 232 1.0 3.0 0.00 0.00 0.00 93 1050.1
20260903073546 74 236 1.0 2.0 0.00 0.00 0.00 94 1049.8
20260903073042 74 233 0.0 1.0 0.00 0.00 0.00 94 1050.1
20260903072537 73 229 0.0 1.0 0.00 0.00 0.00 94 1049.9
20260903072033 73 227 0.0 0.0 0.00 0.00 0.00 94 1049.6
20260903071530 73 220 0.0 0.0 0.00 0.00 0.00 94 1049.4
20260903071025 73 226 0.0 1.0 0.00 0.00 0.00 94 1049.8
20260903070524 73 214 0.0 1.0 0.00 0.00 0.00 94 1049.5
20260903070020 73 229 0.0 1.0 0.00 0.00 0.00 94 1049.7
20260903065514 73 229 0.0 2.0 0.00 0.00 0.00 94 1049.5
20260903065013 73 218 0.0 2.0 0.00 0.00 0.00 94 1049.6
20260903064513 73 232 0.0 1.0 0.00 0.00 0.00 94 1049.6
20260903064009 73 224 0.0 1.0 0.00 0.00 0.00 94 1049.8
20260903063504 73 215 0.0 2.0 0.00 0.00 0.00 94 1049.8
20260903062959 73 230 0.0 0.0 0.00 0.00 0.00 94 1049.8
20260903062454 73 224 0.0 1.0 0.00 0.00 0.00 94 1049.9
20260903061950 73 220 0.0 0.0 0.00 0.00 0.00 94 1049.9
20260903061449 73 238 1.0 4.0 0.00 0.00 0.00 94 1049.8
20260903060946 73 219 0.0 2.0 0.00 0.00 0.00 94 1050.0
20260903060440 72 234 0.0 1.0 0.00 0.00 0.00 94 1049.8
20260903055938 73 225 0.0 1.0 0.00 0.00 0.00 94 1049.8
20260903055436 72 236 0.0 1.0 0.00 0.00 0.00 94 1050.0
20260903054931 72 229 0.0 0.0 0.00 0.00 0.00 94 1050.0
20260903054425 72 261 0.0 0.0 0.00 0.00 0.00 94 1049.9
20260903053921 72 252 0.0 1.0 0.00 0.00 0.00 94 1049.9
20260903053416 72 216 0.0 2.0 0.00 0.00 0.00 93 1049.7
20260903052912 72 242 0.0 2.0 0.00 0.00 0.00 93 1049.8
20260903052408 72 233 0.0 1.0 0.00 0.00 0.00 93 1049.8
20260903051903 73 234 1.0 3.0 0.00 0.00 0.00 93 1049.7
20260903051359 73 35 1.0 2.0 0.00 0.00 0.00 92 1049.7
20260903050854 73 208 0.0 2.0 0.00 0.00 0.00 92 1050.2
20260903050352 73 250 0.0 1.0 0.00 0.00 0.00 92 1049.9
20260903045847 73 291 1.0 2.0 0.00 0.15 0.15 91 1050.0
20260903045343 74 234 0.0 1.0 0.00 0.15 0.15 90 1050.1
20260903044840 74 253 0.0 1.0 0.00 0.15 0.15 90 1050.0
20260903044339 74 265 1.0 2.0 0.00 0.15 0.15 90 1050.0
20260903043836 74 291 0.0 2.0 0.00 0.15 0.15 89 1050.0
20260903043331 75 244 0.0 1.0 0.00 0.15 0.15 89 1050.1
20260903042829 75 208 2.0 4.0 0.00 0.15 0.15 89 1050.1
20260903042326 74 236 0.0 2.0 0.00 0.15 0.15 90 1050.1
20260903041822 74 236 0.0 2.0 0.00 0.15 0.15 90 1050.1
20260903041318 74 359 1.0 1.0 0.00 0.15 0.15 90 1050.2
20260903040813 74 287 1.0 1.0 0.00 0.15 0.15 90 1050.2
20260903040312 74 33 0.0 1.0 0.00 0.15 0.15 90 1050.2
20260903035809 75 245 0.0 3.0 0.00 0.15 0.15 90 1050.1
20260903035306 75 237 0.0 1.0 0.00 0.15 0.15 89 1050.1
20260903034759 75 269 0.0 2.0 0.00 0.15 0.15 89 1050.2
20260903034254 75 76 2.0 2.0 0.00 0.15 0.15 88 1050.2
20260903033749 75 142 1.0 3.0 0.00 0.15 0.15 88 1050.2
20260903033243 75 80 2.0 3.0 0.00 0.15 0.15 88 1050.1
20260903032737 75 237 0.0 2.0 0.00 0.15 0.15 88 1050.2
20260903032234 76 249 1.0 3.0 0.00 0.15 0.15 87 1050.3
20260903031730 76 231 0.0 6.0 0.00 0.15 0.15 87 1050.2
20260903031223 76 241 1.0 2.0 0.00 0.15 0.15 87 1050.3
20260903030719 76 228 1.0 3.0 0.00 0.15 0.15 87 1050.3
20260903030214 76 200 1.0 2.0 0.00 0.15 0.15 86 1050.2
20260903025704 76 297 1.0 2.0 0.00 0.15 0.15 86 1050.3
20260903025159 76 218 0.0 1.0 0.00 0.15 0.15 86 1050.2
20260903024654 76 226 1.0 3.0 0.00 0.15 0.15 86 1050.4
20260903024153 76 159 1.0 2.0 0.00 0.15 0.15 87 1050.3
20260903023650 76 236 0.0 3.0 0.00 0.15 0.15 86 1050.2
20260903023149 76 255 2.0 3.0 0.00 0.15 0.15 87 1050.2
20260903022644 76 245 0.0 2.0 0.00 0.15 0.15 87 1050.2
20260903022144 76 316 1.0 4.0 0.00 0.15 0.15 87 1050.3
20260903021644 77 263 0.0 1.0 0.00 0.15 0.15 86 1050.0
20260903021138 77 306 1.0 2.0 0.00 0.15 0.15 86 1050.3
20260903020633 77 68 1.0 2.0 0.00 0.15 0.15 86 1050.2
20260903020128 77 335 2.0 2.0 0.00 0.15 0.15 86 1050.2
20260903015623 77 310 1.0 1.0 0.00 0.15 0.15 85 1050.2
20260903015118 77 193 1.0 2.0 0.00 0.15 0.15 85 1050.1
20260903014613 77 219 0.0 1.0 0.00 0.15 0.15 85 1049.8
20260903014112 77 307 1.0 2.0 0.00 0.15 0.15 85 1050.0
20260903013607 77 222 0.0 2.0 0.00 0.15 0.15 84 1049.9
20260903013102 77 239 0.0 0.0 0.00 0.15 0.15 83 1050.0
20260903012601 77 235 0.0 1.0 0.00 0.15 0.15 83 1049.9
20260903012059 77 219 0.0 1.0 0.00 0.15 0.15 84 1049.9
20260903011554 77 230 0.0 0.0 0.00 0.15 0.15 85 1049.9
20260903011054 77 234 0.0 1.0 0.00 0.15 0.15 85 1049.9
20260903010550 77 240 0.0 0.0 0.00 0.15 0.15 85 1049.9
20260903010048 78 232 0.0 0.0 0.00 0.15 0.15 84 1049.9
20260903005543 78 224 0.0 0.0 0.00 0.15 0.15 82 1049.8
20260903005038 79 234 0.0 3.0 0.00 0.15 0.15 81 1049.9
20260903004538 79 223 0.0 2.0 0.00 0.15 0.15 81 1049.9
20260903004034 79 230 0.0 1.0 0.00 0.15 0.15 80 1049.9
20260903003529 80 215 0.0 1.0 0.00 0.15 0.15 79 1050.1
20260903003024 80 239 0.0 3.0 0.00 0.15 0.15 79 1050.0
20260903002519 80 208 2.0 3.0 0.00 0.15 0.15 79 1050.0
20260903002014 80 226 0.0 2.0 0.00 0.15 0.15 79 1050.0
20260903001514 81 239 0.0 1.0 0.00 0.15 0.15 78 1049.8
20260903001008 81 233 1.0 2.0 0.00 0.15 0.15 78 1049.8
20260903000503 82 239 1.0 2.0 0.00 0.15 0.15 78 1049.9
20260903000002 82 221 1.0 2.0 0.00 0.15 0.15 77 1049.7
20260902235456 82 219 0.0 1.0 0.00 0.15 0.15 76 1049.9
20260902234951 82 222 0.0 7.0 0.00 0.15 0.15 75 1049.8
20260902234446 83 217 0.0 3.0 0.00 0.15 0.15 75 1050.0
20260902233945 83 222 0.0 4.0 0.00 0.15 0.15 75 1050.1
20260902233438 83 232 0.0 1.0 0.00 0.15 0.15 75 1050.0
20260902232939 83 147 1.0 2.0 0.00 0.15 0.15 73 1050.1
20260902232433 83 215 2.0 4.0 0.00 0.15 0.15 72 1050.0
20260902231933 84 221 1.0 7.0 0.00 0.15 0.15 72 1050.1
20260902231428 84 166 1.0 6.0 0.00 0.15 0.15 72 1050.1
20260902230922 84 126 3.0 4.0 0.00 0.15 0.15 71 1050.0
20260902230422 84 226 2.0 6.0 0.00 0.15 0.15 71 1050.0
20260902225916 85 236 1.0 3.0 0.00 0.15 0.15 73 1050.1
20260902225411 85 209 2.0 3.0 0.00 0.15 0.15 70 1050.2
20260902224909 85 88 1.0 3.0 0.00 0.15 0.15 68 1050.2
20260902224404 86 149 2.0 4.0 0.00 0.15 0.15 67 1050.4
20260902223900 86 259 2.0 3.0 0.00 0.15 0.15 68 1050.2
20260902223355 86 219 3.0 7.0 0.00 0.15 0.15 65 1050.2
20260902222850 87 197 2.0 2.0 0.00 0.15 0.15 65 1050.2
20260902222348 87 232 2.0 3.0 0.00 0.15 0.15 65 1050.1
20260902221843 87 168 2.0 4.0 0.00 0.15 0.15 63 1050.1
20260902221342 87 231 2.0 6.0 0.00 0.15 0.15 66 1050.3
20260902220838 87 200 4.0 8.0 0.00 0.15 0.15 65 1050.2
20260902220337 87 229 2.0 6.0 0.00 0.15 0.15 64 1050.2
20260902215832 87 229 4.0 6.0 0.00 0.15 0.15 64 1050.3
20260902215333 87 211 4.0 8.0 0.00 0.15 0.15 65 1050.3
20260902214829 87 243 3.0 6.0 0.00 0.15 0.15 64 1050.2
20260902214327 87 192 2.0 3.0 0.00 0.15 0.15 63 1050.1
20260902213823 87 171 5.0 7.0 0.00 0.15 0.15 63 1050.3
20260902213319 87 235 0.0 1.0 0.00 0.15 0.15 64 1050.2
20260902212817 86 223 3.0 3.0 0.00 0.15 0.15 64 1050.4
20260902212314 86 179 2.0 4.0 0.00 0.15 0.15 64 1050.5
20260902211810 86 217 6.0 7.0 0.00 0.15 0.15 63 1050.4
20260902211305 86 244 4.0 4.0 0.00 0.15 0.15 64 1050.5
20260902210800 87 204 2.0 3.0 0.00 0.15 0.15 63 1050.5
20260902210255 86 214 4.0 4.0 0.00 0.15 0.15 65 1050.6
20260902205753 86 139 2.0 6.0 0.00 0.15 0.15 64 1050.5
20260902205248 86 249 3.0 4.0 0.00 0.15 0.15 62 1050.5
20260902204743 86 234 1.0 3.0 0.00 0.15 0.15 64 1050.5
20260902204238 86 227 3.0 4.0 0.00 0.15 0.15 62 1050.6
20260902203733 86 238 0.0 4.0 0.00 0.15 0.15 64 1050.8
20260902203228 86 258 4.0 6.0 0.00 0.15 0.15 64 1050.9
20260902202728 86 191 2.0 3.0 0.00 0.15 0.15 66 1050.8
20260902202224 87 241 4.0 4.0 0.00 0.15 0.15 65 1050.7
20260902201721 87 242 0.0 4.0 0.00 0.15 0.15 62 1050.9
20260902201219 87 244 3.0 3.0 0.00 0.15 0.15 66 1050.8
20260902200714 87 259 0.0 2.0 0.00 0.15 0.15 65 1050.9
20260902200211 86 236 0.0 2.0 0.00 0.15 0.15 67 1050.9
20260902195706 86 243 1.0 2.0 0.00 0.15 0.15 65 1051.1
20260902195205 85 211 1.0 3.0 0.00 0.15 0.15 68 1051.1
20260902194705 85 214 4.0 4.0 0.00 0.15 0.15 66 1051.3
20260902194200 84 226 2.0 3.0 0.00 0.15 0.15 69 1051.2
20260902193656 84 247 1.0 4.0 0.00 0.15 0.15 69 1051.2
20260902193151 85 204 3.0 4.0 0.00 0.15 0.15 67 1051.1
20260902192649 84 234 4.0 4.0 0.00 0.15 0.15 68 1051.1
20260902192148 84 231 4.0 7.0 0.00 0.15 0.15 67 1051.1
20260902191643 84 178 3.0 6.0 0.00 0.15 0.15 69 1051.4
20260902191137 83 193 2.0 4.0 0.00 0.15 0.15 70 1051.3
20260902190633 83 212 3.0 6.0 0.00 0.15 0.15 70 1051.3
20260902190128 83 240 4.0 4.0 0.00 0.15 0.15 70 1051.3
20260902185624 83 216 1.0 6.0 0.00 0.15 0.15 69 1051.1
20260902185120 83 205 1.0 2.0 0.00 0.15 0.15 66 1051.1
20260902184615 83 286 2.0 3.0 0.00 0.15 0.15 67 1051.3
20260902184110 82 239 2.0 2.0 0.00 0.15 0.15 69 1051.4
20260902183606 81 229 2.0 4.0 0.00 0.15 0.15 70 1051.6
20260902183103 81 248 2.0 3.0 0.00 0.15 0.15 72 1051.5
20260902182558 80 223 0.0 2.0 0.00 0.15 0.15 75 1051.7
20260902182055 80 33 1.0 4.0 0.00 0.15 0.15 76 1052.0
20260902181550 79 238 4.0 4.0 0.00 0.15 0.15 74 1052.0
20260902181050 79 222 3.0 3.0 0.00 0.15 0.15 78 1051.9
20260902180544 78 235 1.0 3.0 0.00 0.15 0.15 78 1051.8
20260902180040 78 221 2.0 3.0 0.00 0.15 0.15 77 1051.7
20260902175540 78 184 2.0 4.0 0.00 0.15 0.15 79 1051.7
20260902175036 77 231 4.0 6.0 0.00 0.15 0.15 79 1051.7
20260902174532 77 228 1.0 4.0 0.00 0.15 0.15 80 1051.7
20260902174033 77 147 5.0 7.0 0.00 0.15 0.15 82 1051.8
20260902173532 77 225 2.0 13.0 0.00 0.15 0.15 82 1052.0
20260902173032 76 233 1.0 9.0 0.00 0.15 0.15 81 1052.2
20260902172527 77 175 1.0 9.0 0.00 0.15 0.15 81 1052.0
20260902172022 76 275 2.0 3.0 0.00 0.15 0.15 81 1051.8
20260902171518 75 184 1.0 6.0 0.00 0.15 0.15 82 1052.0
20260902171013 73 174 1.0 2.0 0.00 0.15 0.15 86 1052.2
20260902170509 73 70 1.0 2.0 0.00 0.15 0.15 87 1052.3
20260902170004 73 209 2.0 3.0 0.00 0.15 0.15 87 1052.0
20260902165503 73 85 2.0 2.0 0.00 0.15 0.15 87 1052.6
20260902164958 72 229 1.0 2.0 0.00 0.15 0.15 88 1052.6
20260902164454 72 157 2.0 4.0 0.00 0.15 0.15 88 1052.7
20260902163952 72 211 2.0 3.0 0.00 0.15 0.15 87 1052.8
20260902163448 72 208 0.0 3.0 0.00 0.15 0.15 88 1052.5
20260902162945 72 185 3.0 3.0 0.00 0.15 0.15 87 1052.8
20260902162441 73 238 3.0 4.0 0.00 0.15 0.15 87 1052.9